Tracking 19637 objects as of 18-Apr-2019
HD Live streaming from Space Station
objects crossing your sky now

ARIANE 44L DEB

Track ARIANE 44L DEB now!


NORAD ID: 33590
Int'l Code: 1991-003T
Perigee: 618.3 km
Apogee: 30,533.7 km
Inclination: 7.2 °
Period: 539.3 minutes
Semi major axis: 21946 km
RCS: 0.0632 m2 (small)
Launch date: January 15, 1991
Source: France (FR)
Launch site: FRENCH GUIANA (FRGUI)

Note: This is SATELLITE DEBRIS
aabbcc
Your satellite tracking list
Your tracking list is empty




NASA's NSSDC Master Catalog

Two Line Element Set (TLE):
1 33590U 91003T   19104.43992664 -.00000963  00000-0 -98643-2 0  9993
2 33590   7.2061 230.8939 6815370 114.9514 228.7345  2.67018125152222
Source of the keplerian elements: AFSPC